This is the latest recevied weather packets stored in our database for station/object G4KVI. If no packets are shown the sender has not sent any weather packets the latest 10 day(s).
| Time | Temp. | Humidity | Pressure | Rain* | Wind** | Luminosity | Snow |
|---|---|---|---|---|---|---|---|
| 1787519104 | 16.11° C | 71% | 1025.4 hPa | 0 mm | - | 0 W/m² | - |
| 1787518804 | 16.11° C | 71% | 1025.5 hPa | 0 mm | - | 0 W/m² | - |
| 1787518504 | 16.11° C | 70% | 1025.4 hPa | 0 mm | - | 0 W/m² | - |
| 1787518204 | 16.11° C | 69% | 1025.3 hPa | 0 mm | - | 0 W/m² | - |
| 1787517904 | 16.67° C | 69% | 1025.2 hPa | 0 mm | - | 0 W/m² | - |
| 1787517604 | 16.67° C | 68% | 1025.4 hPa | 0 mm | - | 0 W/m² | - |
| 1787517304 | 16.67° C | 69% | 1025.4 hPa | 0 mm | - | 0 W/m² | - |
| 1787517004 | 16.67° C | 68% | 1025.1 hPa | 0 mm | - | 0 W/m² | - |
| 1787516704 | 16.67° C | 68% | 1025 hPa | 0 mm | - | 0 W/m² | - |
| 1787516404 | 16.67° C | 68% | 1025.2 hPa | 0 mm | - | 0 W/m² | - |
| 1787516104 | 16.67° C | 67% | 1025.3 hPa | 0 mm | - | 0 W/m² | - |
| 1787515804 | 17.22° C | 66% | 1025.2 hPa | 0 mm | - | 0 W/m² | - |
| 1787515504 | 17.22° C | 65% | 1025.1 hPa | 0 mm | - | 0 W/m² | - |
| 1787515204 | 17.78° C | 64% | 1025.2 hPa | 0 mm | - | 0 W/m² | - |
| 1787514904 | 17.78° C | 63% | 1025.2 hPa | 0 mm | - | 0 W/m² | - |
| 1787514604 | 17.78° C | 63% | 1025.1 hPa | 0 mm | - | 0 W/m² | - |
| 1787514304 | 18.33° C | 62% | 1025 hPa | 0 mm | - | 0 W/m² | - |
| 1787514004 | 18.33° C | 61% | 1025.2 hPa | 0 mm | - | 0 W/m² | - |
| 1787513704 | 18.89° C | 59% | 1025 hPa | 0 mm | - | 0 W/m² | - |
| 1787513404 | 18.89° C | 58% | 1025 hPa | 0 mm | - | 0 W/m² | - |
| 1787513104 | 19.44° C | 54% | 1024.9 hPa | 0 mm | - | 1 W/m² | - |
| 1787512804 | 19.44° C | 51% | 1024.8 hPa | 0 mm | - | 2 W/m² | - |
| 1787512504 | 20° C | 47% | 1024.9 hPa | 0 mm | - | 3 W/m² | - |
| 1787512204 | 20.56° C | 44% | 1024.7 hPa | 0 mm | - | 5 W/m² | - |
| 1787511904 | 21.11° C | 41% | 1024.6 hPa | 0 mm | - | 7 W/m² | - |
* Rain latest hour (hover to see other rain measurements)
** Current wind speed in m/s (hover to see current wind gust speed)